Regional Weather Roundup
Issued by NWS Upton, NY

Current Version | Previous Version | Text Only | Print | Product List | Glossary Off
Versions: 1 2 3 4 5 6 7 8 9 10 11 12 13 14 15 16 17 18 19 20 21 22 23 24 25 26 27 28 29 30 31 32 33 34 35 36 37 38 39 40 41 42 43 44 45 46 47 48 49 50
000 ASUS41 KOKX 120214 RWROKX Regional Weather Roundup National Weather Service New York NY 1000 PM EDT TUE MAY 11 2021 Note: "FAIR" indicates few or no clouds below 12,000 feet with no significant weather and/or obstructions to visibility. NYZ071-072-176-178-NJZ106-104-120300- New York City Metro Area CITY SKY/WX TMP DP RH WIND PRES REMARKS Central Park MOCLDY 57 32 38 NW9 30.09R Bronx Lehman C N/A 55 34 44 NW8 N/A LaGuardia Arpt MOCLDY 58 34 40 NW16G26 30.05R Queens College N/A 57 32 38 NW14 N/A Kennedy Intl CLOUDY 57 31 37 NW18 30.06R Breezy Point N/A 55 N/A N/A NW10G18 N/A Brooklyn Coll N/A 57 34 41 NW14 N/A Staten Island N/A 54 36 50 NW7 N/A Newark/Liberty MOCLDY 58 34 40 W10 30.07R Teterboro PTCLDY 55 32 41 NW8G18 30.06R $$ NYZ177-179-078>081-120300- Long Island New York CITY SKY/WX TMP DP RH WIND PRES REMARKS Jones Beach N/A 57 N/A N/A NW12 N/A Wantagh N/A 57 34 41 NW7 N/A Hempstead NOT AVBL Matinecock Pt N/A 57 N/A N/A NW18 N/A Farmingdale PTCLDY 57 33 40 NW10 30.05R MacArthur/ISP MOCLDY 56 35 45 NW8 30.03R Shirley CLOUDY 54 44 69 W5 30.03R Mt Sinai Harb N/A 54 N/A N/A W5 N/A Westhampton MOCLDY 49 44 83 W3 30.04R East Hampton MOCLDY 52 39 61 W3 30.01S Southold N/A 54 41 62 W5 N/A Montauk N/A 56 39 53 SW3 30.01S $$ NYZ052-065-067-120300- Hudson Valley CITY SKY/WX TMP DP RH WIND PRES REMARKS White Plains MOCLDY 52 28 39 NW15 30.05R Larchmont Harb N/A 55 N/A N/A W12 N/A Croton On Huds N/A 54 N/A N/A NW12 N/A Somers N/A 50 28 43 NW5 N/A Brewster N/A 48 28 46 NW7 N/A Newburgh CLEAR 50 28 43 W14 30.06R Montgomery PTCLDY 46 28 49 W5 30.07R Otisville N/A 48 28 46 NW6G17 N/A Warwick N/A 48 32 53 W3 N/A Suffern N/A 50 32 50 NW3 N/A Poughkeepsie PTCLDY 50 27 40 W5 30.05R Albany PTCLDY 44 27 51 W8 30.06R $$ NJZ001-105-106-008-010-013-015-019>022-104-120300- New Jersey CITY SKY/WX TMP DP RH WIND PRES REMARKS Newark/Liberty MOCLDY 58 34 40 W10 30.07R Teterboro PTCLDY 55 32 41 NW8G18 30.06R Caldwell MOCLDY 56 31 38 NW7 30.08R Somerville LGT RAIN 53 37 54 NW8 30.08R Linden LGT RAIN 54 37 52 NW7 30.08R Perth Amboy N/A 55 N/A N/A NW13 N/A Sussex MOCLDY 51 30 44 CALM 30.09R Andover N/A 50 31 48 CALM 30.09R Trenton MOCLDY 52 38 58 N8 30.09R Millville CLOUDY 56 41 57 W8 30.10R Atlantic City CLOUDY 59 40 49 W13 30.08R Wrightstown PTCLDY 52 40 65 N6 30.07R Toms River CLOUDY 56 38 50 W3 30.08R Belmar MOCLDY 55 39 54 NW7 30.08R $$ PAZ047>061-062-071-120300- Eastern Pennsylvania CITY SKY/WX TMP DP RH WIND PRES REMARKS Philadelphia MOCLDY 59 34 39 W13 30.09R Allentown CLOUDY 51 30 44 N12 30.11R Scranton PTCLDY 49 24 37 NW9 30.11R $$ CTZ002-004>006-009-010-012-RIZ004-006-007-MAZ004-011-015-120300- Southern New England In CT CITY SKY/WX TMP DP RH WIND PRES REMARKS Bradley Intl PTCLDY 49 30 48 NW7 30.03R Hartford CLEAR 53 29 39 NW10 30.03R Danbury PTCLDY 54 26 34 NW8 30.06R Wtrbury/Oxford PTCLDY 46 30 53 N7 30.04R Norwalk Harbor N/A 54 N/A N/A W13G18 N/A Bridgeport PTCLDY 56 31 38 NW6 30.03R Meriden N/A 52 30 43 VRB7 30.04R New Haven PTCLDY 57 31 37 NW5 30.03R Chester MOCLDY 54 28 37 NW10 30.03R Groton MOCLDY 54 33 45 NW9 30.01R Willimantic CLEAR 51 29 42 NW5 30.03R In RI CITY SKY/WX TMP DP RH WIND PRES REMARKS Providence PTCLDY 55 26 32 NW15G23 30.00R Block Island MOCLDY 52 38 58 W9 30.01R Westerly CLOUDY 53 32 44 NW3 30.01R In MA CITY SKY/WX TMP DP RH WIND PRES REMARKS Boston CLEAR 56 23 27 W20 29.97S Worcester CLEAR 48 26 42 W10 29.98S Westfield CLEAR 50 27 40 NW8 30.02R Provincetown CLEAR 52 39 61 W8 29.97R Nantucket CLOUDY 53 42 66 W15 29.98S $$ ANZ330-335-338-340-345-350-353-355-120300- Coastal Marine Observations STATION/POSITION TIME SKY/WX TEMP WIND PRES VSBY WAVE AIR SEA DIR/SP/G HT/PER (UTC) (F) (DEG/KT/KT) (MB) (MI) (FT/S) NY Harb Entrance 0150 53 290/ 12/ 14 1017.1 3/ 8 20 S Fire Island 0150 52 290/ 16/ 17 1016.8 3/ 8 Great South Bay 0130 58 58 300/ 10/ 10 N/A 23 SSW Montauk P 0150 52 51 260/ 8/ 8 1016.6 4/ 7 15 E Barnegat Li 0156 53 N/A 3/ 4 Hudson Canyon NOT AVBL Kings Point 0130 57 360/ 16/ 19 1018.4 Execution Rocks NOT AVBL Western LI Sound NOT AVBL Central LI Sound 0100 55 51 250/ 8/ 10 N/A 1/ 4 Robbins Reef 0130 57 310/ 13/ 15 1017.6 $$ >>>>>>>>>>>>>>>>>>>>>>>>>>>> KEY <<<<<<<<<<<<<<<<<<<<<<<<<<< > < > SKY/WX - Sky Condition/Present Weather < > TMP - Temperature in Fahrenheit < > DP - Dew Point in Fahrenheit < > RH - Relative Humidity in Percent < > WIND - Direction (from) and Speed in MPH < > PRES - Mean Sea Level Pressure (inches of Hg) < > WCI - Wind Chill Index < > VSB - Visibility in Miles < > HX - Heat Index < > TC - Temperature in Celsius < > VRB - Variable Wind Direction < > < >>>>>>>>>>>>>>>>>>>>>>>>>>>> KEY <<<<<<<<<<<<<<<<<<<<<<<<<<<

USA.gov is the U.S. government's official web portal to all federal, state and local government web resources and services.